HAZ6716 RCBS-RCSS

Flight info

Callsign HAZ6716
Flight time 0h 38m
Altitude 29000
Route INDIA1A INDIA W6 MKG A1 HLG HLG1E
Aircraft E75L/M-SDE3GILORVW/S

Departure

Time 2026-05-05 05:19
Airport Kinmen Airport (RCBS)

Arrival

Time 2026-05-05 05:58
Airport Taipei Songshan International Airport (RCSS)
Time Latitude Longitude Altitude Speed Heading
2026-05-05 05:08 24.43493 118.36810 43 ft 0 kts 330°
2026-05-05 05:10 24.43494 118.36810 43 ft 0 kts 330°
2026-05-05 05:11 24.43483 118.36816 42 ft 2 kts 330°
2026-05-05 05:11 24.43470 118.36825 41 ft 2 kts 330°
2026-05-05 05:11 24.43457 118.36832 40 ft 2 kts 330°
2026-05-05 05:12 24.43444 118.36841 40 ft 2 kts 330°
2026-05-05 05:12 24.43435 118.36846 39 ft 0 kts 330°
2026-05-05 05:12 24.43425 118.36856 39 ft 2 kts 296°
2026-05-05 05:12 24.43422 118.36872 38 ft 2 kts 258°
2026-05-05 05:13 24.43425 118.36881 38 ft 0 kts 242°
2026-05-05 05:14 24.43425 118.36880 38 ft 0 kts 242°
2026-05-05 05:14 24.43420 118.36871 38 ft 4 kts 245°
2026-05-05 05:14 24.43393 118.36809 39 ft 13 kts 244°
2026-05-05 05:14 24.43335 118.36684 39 ft 23 kts 243°
2026-05-05 05:15 24.43251 118.36498 40 ft 28 kts 243°
2026-05-05 05:15 24.43166 118.36313 39 ft 25 kts 245°
2026-05-05 05:15 24.43088 118.36145 41 ft 24 kts 241°
2026-05-05 05:15 24.43008 118.35970 40 ft 26 kts 244°
2026-05-05 05:16 24.42929 118.35796 44 ft 25 kts 244°
2026-05-05 05:16 24.42816 118.35771 40 ft 21 kts 152°
2026-05-05 05:16 24.42736 118.35771 36 ft 10 kts 245°
2026-05-05 05:16 24.42693 118.35671 37 ft 16 kts 244°
2026-05-05 05:17 24.42639 118.35548 41 ft 17 kts 245°
2026-05-05 05:17 24.42587 118.35431 44 ft 18 kts 242°
2026-05-05 05:17 24.42520 118.35287 49 ft 23 kts 244°
2026-05-05 05:17 24.42450 118.35135 54 ft 21 kts 244°
2026-05-05 05:18 24.42364 118.35028 55 ft 14 kts 249°
2026-05-05 05:18 24.42381 118.35008 57 ft 0 kts 56°
2026-05-05 05:18 24.42386 118.35017 57 ft 6 kts 54°
2026-05-05 05:18 24.42528 118.35307 48 ft 79 kts 63°
2026-05-05 05:19 24.42870 118.36046 42 ft 134 kts 59°
2026-05-05 05:19 24.43270 118.36944 599 ft 128 kts 63°
2026-05-05 05:19 24.43667 118.37813 1162 ft 131 kts 72°
2026-05-05 05:19 24.43569 118.38866 1566 ft 161 kts 108°
2026-05-05 05:20 24.43008 118.40062 1909 ft 192 kts 112°
2026-05-05 05:20 24.42330 118.41459 2355 ft 219 kts 113°
2026-05-05 05:20 24.41590 118.42973 3093 ft 232 kts 115°
2026-05-05 05:20 24.40806 118.44576 3745 ft 249 kts 116°
2026-05-05 05:21 24.39967 118.46288 4336 ft 267 kts 117°
2026-05-05 05:21 24.39066 118.48126 5057 ft 279 kts 118°
2026-05-05 05:21 24.38146 118.50004 5846 ft 286 kts 119°
2026-05-05 05:21 24.37199 118.51934 6661 ft 292 kts 120°
2026-05-05 05:22 24.36237 118.53894 7439 ft 297 kts 120°
2026-05-05 05:22 24.35253 118.55898 8189 ft 303 kts 120°
2026-05-05 05:22 24.34248 118.57945 8897 ft 309 kts 121°
2026-05-05 05:22 24.33218 118.60043 9605 ft 314 kts 121°
2026-05-05 05:23 24.32180 118.62157 10283 ft 320 kts 121°
2026-05-05 05:23 24.31116 118.64322 10904 ft 327 kts 121°
2026-05-05 05:23 24.29976 118.66486 11419 ft 333 kts 133°
2026-05-05 05:23 24.28326 118.68252 11927 ft 336 kts 144°
2026-05-05 05:24 24.26537 118.69978 12441 ft 344 kts 144°
2026-05-05 05:24 24.24721 118.71726 13031 ft 349 kts 144°
2026-05-05 05:24 24.22905 118.73470 13648 ft 353 kts 144°
2026-05-05 05:24 24.21061 118.75242 14304 ft 354 kts 144°
2026-05-05 05:25 24.19187 118.77039 14950 ft 355 kts 144°
2026-05-05 05:25 24.17349 118.78803 15573 ft 356 kts 145°
2026-05-05 05:25 24.15487 118.80588 16168 ft 358 kts 145°
2026-05-05 05:25 24.13613 118.82383 16747 ft 359 kts 145°
2026-05-05 05:26 24.11711 118.84205 17279 ft 362 kts 145°
2026-05-05 05:26 24.09896 118.86112 17778 ft 371 kts 134°
2026-05-05 05:26 24.08364 118.88432 18278 ft 376 kts 131°
2026-05-05 05:26 24.06856 118.90768 18748 ft 380 kts 131°
2026-05-05 05:27 24.05331 118.93128 19174 ft 385 kts 131°
2026-05-05 05:27 24.03778 118.95530 19642 ft 388 kts 131°
2026-05-05 05:27 24.00645 119.00370 20494 ft 395 kts 131°
2026-05-05 05:28 23.99042 119.02844 20912 ft 399 kts 131°
2026-05-05 05:28 23.97429 119.05334 21341 ft 402 kts 132°
2026-05-05 05:28 23.95821 119.07812 21756 ft 405 kts 131°
2026-05-05 05:28 23.94179 119.10356 22165 ft 409 kts 132°
2026-05-05 05:29 23.92553 119.12875 22560 ft 412 kts 132°
2026-05-05 05:29 23.90891 119.15448 22936 ft 415 kts 132°
2026-05-05 05:29 23.89227 119.18023 23292 ft 419 kts 131°
2026-05-05 05:29 23.87520 119.20664 23661 ft 422 kts 131°
2026-05-05 05:30 23.85835 119.23268 24012 ft 426 kts 131°
2026-05-05 05:30 23.84134 119.25899 24390 ft 429 kts 131°
2026-05-05 05:30 23.82398 119.28579 24748 ft 432 kts 131°
2026-05-05 05:30 23.80656 119.31267 25108 ft 435 kts 131°
2026-05-05 05:31 23.78912 119.33958 25449 ft 438 kts 131°
2026-05-05 05:31 23.77132 119.36703 25816 ft 441 kts 131°
2026-05-05 05:31 23.75360 119.39436 26162 ft 443 kts 131°
2026-05-05 05:31 23.73593 119.42156 26473 ft 447 kts 131°
2026-05-05 05:32 23.71790 119.44931 26798 ft 449 kts 131°
2026-05-05 05:32 23.69961 119.47746 27093 ft 453 kts 131°
2026-05-05 05:32 23.68160 119.50522 27424 ft 456 kts 130°
2026-05-05 05:32 23.66563 119.53554 27687 ft 467 kts 120°
2026-05-05 05:33 23.65411 119.56889 27990 ft 476 kts 109°
2026-05-05 05:33 23.64738 119.60460 28268 ft 484 kts 99°
2026-05-05 05:33 23.64584 119.64168 28570 ft 489 kts 89°
2026-05-05 05:33 23.64947 119.67802 28859 ft 489 kts 79°
2026-05-05 05:34 23.67176 119.74789 28952 ft 495 kts 59°
2026-05-05 05:34 23.71310 119.80847 28944 ft 501 kts 39°
2026-05-05 05:35 23.76900 119.85299 28944 ft 495 kts 21°
2026-05-05 05:35 23.82860 119.89173 28941 ft 506 kts 34°
2026-05-05 05:36 23.87671 119.94834 28933 ft 516 kts 48°
2026-05-05 05:36 23.89987 119.97757 28931 ft 500 kts 43°
2026-05-05 05:36 23.92356 120.00490 28932 ft 495 kts 41°
2026-05-05 05:37 23.97144 120.05904 28903 ft 499 kts 41°
2026-05-05 05:37 23.99563 120.08633 28792 ft 497 kts 41°
2026-05-05 05:37 24.01963 120.11340 28939 ft 497 kts 41°
2026-05-05 05:38 24.06789 120.16788 28921 ft 499 kts 41°
2026-05-05 05:38 24.11604 120.22234 28907 ft 497 kts 41°
2026-05-05 05:39 24.14010 120.24957 28697 ft 496 kts 41°
2026-05-05 05:39 24.16408 120.27671 28493 ft 494 kts 41°
2026-05-05 05:39 24.18778 120.30357 28289 ft 491 kts 41°
2026-05-05 05:39 24.21147 120.33044 27945 ft 490 kts 41°
2026-05-05 05:40 24.23478 120.35693 26316 ft 486 kts 42°
2026-05-05 05:40 24.25771 120.38297 25917 ft 478 kts 42°
2026-05-05 05:40 24.28061 120.40897 25209 ft 470 kts 42°
2026-05-05 05:40 24.30304 120.43444 24578 ft 464 kts 43°
2026-05-05 05:41 24.32532 120.45976 23969 ft 458 kts 43°
2026-05-05 05:41 24.34737 120.48483 23376 ft 454 kts 43°
2026-05-05 05:41 24.36932 120.50980 22482 ft 458 kts 43°
2026-05-05 05:41 24.39136 120.53487 21115 ft 465 kts 44°
2026-05-05 05:42 24.41355 120.56016 19754 ft 460 kts 44°
2026-05-05 05:42 24.43501 120.58462 18498 ft 439 kts 44°
2026-05-05 05:42 24.45556 120.60805 17752 ft 412 kts 44°
2026-05-05 05:42 24.47519 120.63044 17248 ft 405 kts 43°
2026-05-05 05:43 24.49457 120.65256 16748 ft 401 kts 44°
2026-05-05 05:43 24.51391 120.67463 16205 ft 398 kts 44°
2026-05-05 05:43 24.53283 120.69624 16008 ft 392 kts 44°
2026-05-05 05:43 24.55189 120.71802 15935 ft 396 kts 44°
2026-05-05 05:44 24.57058 120.74004 15273 ft 396 kts 46°
2026-05-05 05:44 24.58891 120.76210 14846 ft 387 kts 46°
2026-05-05 05:44 24.60711 120.78403 14443 ft 384 kts 45°
2026-05-05 05:44 24.62498 120.80557 13995 ft 381 kts 45°
2026-05-05 05:45 24.64276 120.82699 13580 ft 378 kts 45°
2026-05-05 05:45 24.66038 120.84824 13170 ft 375 kts 45°
2026-05-05 05:45 24.67772 120.86916 12756 ft 371 kts 45°
2026-05-05 05:45 24.69514 120.89018 12343 ft 368 kts 45°
2026-05-05 05:46 24.71213 120.91070 11936 ft 364 kts 45°
2026-05-05 05:46 24.72921 120.93134 11528 ft 358 kts 45°
2026-05-05 05:46 24.74552 120.95106 11140 ft 349 kts 45°
2026-05-05 05:46 24.76166 120.97058 10736 ft 339 kts 45°
2026-05-05 05:47 24.77722 120.98940 10386 ft 328 kts 45°
2026-05-05 05:47 24.79237 121.00774 10012 ft 318 kts 45°
2026-05-05 05:47 24.80696 121.02540 9677 ft 309 kts 45°
2026-05-05 05:47 24.82125 121.04269 9347 ft 305 kts 45°
2026-05-05 05:48 24.83563 121.06011 9017 ft 305 kts 46°
2026-05-05 05:48 24.84980 121.07728 8683 ft 304 kts 46°
2026-05-05 05:48 24.86407 121.09459 8349 ft 304 kts 46°
2026-05-05 05:48 24.87819 121.11170 8011 ft 302 kts 46°
2026-05-05 05:49 24.89220 121.12870 7676 ft 300 kts 46°
2026-05-05 05:49 24.90615 121.14565 7348 ft 298 kts 46°
2026-05-05 05:49 24.92020 121.16270 7009 ft 297 kts 46°
2026-05-05 05:49 24.93393 121.17937 6681 ft 295 kts 47°
2026-05-05 05:50 24.94781 121.19624 6357 ft 293 kts 47°
2026-05-05 05:50 24.95927 121.21427 6175 ft 281 kts 59°
2026-05-05 05:50 24.96921 121.23236 5901 ft 272 kts 59°
2026-05-05 05:50 24.97895 121.24983 5546 ft 268 kts 53°
2026-05-05 05:51 24.99300 121.26266 5245 ft 258 kts 31°
2026-05-05 05:51 25.00815 121.27333 4918 ft 254 kts 35°
2026-05-05 05:51 25.02170 121.28523 4620 ft 249 kts 41°
2026-05-05 05:51 25.03419 121.29802 4396 ft 239 kts 45°
2026-05-05 05:52 25.04580 121.31087 4098 ft 233 kts 47°
2026-05-05 05:52 25.05674 121.32348 3984 ft 219 kts 47°
2026-05-05 05:52 25.06661 121.33511 3959 ft 200 kts 47°
2026-05-05 05:52 25.07466 121.34731 3638 ft 189 kts 72°
2026-05-05 05:53 25.07573 121.36066 3473 ft 168 kts 89°
2026-05-05 05:53 25.07559 121.37341 3209 ft 164 kts 91°
2026-05-05 05:53 25.07530 121.38579 2997 ft 161 kts 93°
2026-05-05 05:53 25.07494 121.39803 2643 ft 158 kts 93°
2026-05-05 05:54 25.07455 121.40975 2374 ft 145 kts 93°
2026-05-05 05:54 25.07420 121.42028 2145 ft 132 kts 93°
2026-05-05 05:54 25.07387 121.42995 1954 ft 121 kts 92°
2026-05-05 05:54 25.07355 121.43919 1798 ft 118 kts 92°
2026-05-05 05:55 25.07324 121.44821 1647 ft 119 kts 93°
2026-05-05 05:55 25.07293 121.45727 1497 ft 120 kts 92°
2026-05-05 05:55 25.07261 121.46660 1333 ft 121 kts 92°
2026-05-05 05:55 25.07229 121.47587 1173 ft 123 kts 93°
2026-05-05 05:56 25.07204 121.48526 1050 ft 120 kts 92°
2026-05-05 05:56 25.07191 121.49462 858 ft 125 kts 91°
2026-05-05 05:56 25.07166 121.50425 693 ft 125 kts 94°
2026-05-05 05:56 25.07091 121.51371 537 ft 123 kts 96°
2026-05-05 05:57 25.07066 121.52337 367 ft 126 kts 91°
2026-05-05 05:57 25.07030 121.53288 199 ft 125 kts 92°
2026-05-05 05:57 25.07003 121.54231 43 ft 120 kts 93°
2026-05-05 05:57 25.06967 121.55049 25 ft 84 kts 92°
2026-05-05 05:58 25.06940 121.55471 24 ft 26 kts 105°
2026-05-05 05:58 25.06865 121.55653 25 ft 26 kts 121°
2026-05-05 05:58 25.06803 121.55699 26 ft 5 kts 228°
2026-05-05 05:58 25.06783 121.55651 26 ft 7 kts 251°
2026-05-05 05:59 25.06782 121.55583 26 ft 13 kts 272°
2026-05-05 05:59 25.06786 121.55465 24 ft 16 kts 272°
2026-05-05 05:59 25.06790 121.55344 22 ft 14 kts 272°
2026-05-05 05:59 25.06792 121.55242 24 ft 9 kts 269°
2026-05-05 06:00 25.06767 121.55185 25 ft 9 kts 199°
2026-05-05 06:00 25.06698 121.55187 25 ft 10 kts 174°
2026-05-05 06:00 25.06656 121.55191 25 ft 0 kts 174°
2026-05-05 06:00 25.06655 121.55191 25 ft 1 kts 174°
2026-05-05 06:01 25.06618 121.55196 26 ft 9 kts 174°
2026-05-05 06:01 25.06569 121.55165 27 ft 5 kts 229°
2026-05-05 06:01 25.06536 121.55157 27 ft 4 kts 179°
2026-05-05 06:01 25.06502 121.55157 28 ft 5 kts 178°
2026-05-05 06:02 25.06481 121.55158 28 ft 0 kts 178°